EW3619 Weather Reports


Display with metric or nautical units.
time (UTC)temp
F
wind
direction
speed
MPH
gust
MPH
rain 1hr
in
rain 24hr
in
rain mn
in
humidity
%
barometer
mb
20260509020034 69 240 4.0 10.0 0.00 0.00 0.00 1 1012.1
20260509014521 71 246 5.0 9.0 0.00 0.00 0.00 1 1012.0
20260509013016 73 260 3.0 7.0 0.00 0.00 0.00 1 1012.1
20260509011512 74 312 4.0 9.0 0.00 0.00 0.00 1 1012.3
20260509010007 74 202 3.0 8.0 0.00 0.00 0.00 1 1012.1
20260509004503 74 243 2.0 8.0 0.00 0.00 0.00 1 1012.2
20260509003108 74 203 5.0 10.0 0.00 0.00 0.00 1 1012.2
20260509001555 74 293 4.0 10.0 0.00 0.00 0.00 1 1012.2
20260509000050 74 279 3.0 12.0 0.00 0.00 0.00 1 1012.3
20260508234552 74 244 8.0 12.0 0.00 0.00 0.00 1 1012.3
20260508233041 75 308 5.0 12.0 0.00 0.00 0.00 1 1012.2
20260508231547 75 252 5.0 12.0 0.00 0.00 0.00 1 1012.4
20260508230035 75 313 6.0 14.0 0.00 0.00 0.00 1 1012.4
20260508224531 76 341 7.0 13.0 0.00 0.00 0.00 1 1012.4
20260508223036 77 247 4.0 13.0 0.00 0.00 0.00 1 1012.3
20260508221519 77 234 7.0 14.0 0.00 0.00 0.00 1 1012.6
20260508220017 78 196 7.0 15.0 0.00 0.00 0.00 1 1012.7
20260508214511 79 278 7.0 15.0 0.00 0.00 0.00 1 1012.9
20260508213006 79 196 8.0 15.0 0.00 0.00 0.00 1 1012.8
20260508211506 79 182 7.0 13.0 0.00 0.00 0.00 1 1012.8
20260508210058 79 222 5.0 12.0 0.00 0.00 0.00 1 1012.9
20260508204554 80 201 6.0 12.0 0.00 0.00 0.00 1 1012.9
20260508203104 79 197 5.0 10.0 0.00 0.00 0.00 1 1013.0
20260508201547 79 163 6.0 12.0 0.00 0.00 0.00 1 1013.1
20260508200040 79 172 5.0 10.0 0.00 0.00 0.00 1 1013.2
20260508194535 78 194 6.0 11.0 0.00 0.00 0.00 1 1013.3
20260508193039 77 231 2.0 9.0 0.00 0.00 0.00 1 1013.5
20260508191536 77 207 5.0 7.0 0.00 0.00 0.00 1 1013.8
20260508190030 76 184 3.0 7.0 0.00 0.00 0.00 1 1013.9
20260508184523 75 167 3.0 8.0 0.00 0.00 0.00 1 1014.2
20260508183013 75 161 1.0 10.0 0.00 0.00 0.00 1 1014.2
20260508181508 73 143 1.0 4.0 0.00 0.00 0.00 1 1014.5
20260508180004 70 68 3.0 6.0 0.00 0.00 0.00 1 1014.6
20260508174615 68 91 3.0 7.0 0.00 0.00 0.00 1 1014.7
20260508173055 64 145 3.0 7.0 0.00 0.00 0.00 1 1014.8
20260508171551 63 164 2.0 6.0 0.00 0.00 0.00 1 1015.0
20260508170046 62 73 2.0 4.0 0.00 0.00 0.00 1 1014.9
20260508164543 61 84 2.0 4.0 0.00 0.00 0.00 1 1015.0
20260508163039 60 171 0.0 2.0 0.00 0.00 0.00 1 1015.0
20260508161534 60 155 0.0 3.0 0.00 0.00 0.00 1 1015.1
20260508160028 60 165 2.0 4.0 0.00 0.00 0.00 1 1015.4
20260508154524 60 175 0.0 3.0 0.00 0.00 0.00 1 1015.3
20260508153020 59 205 0.0 2.0 0.00 0.00 0.00 1 1015.4
20260508151515 59 205 0.0 2.0 0.00 0.00 0.00 1 1015.3
20260508150018 59 146 1.0 3.0 0.00 0.00 0.00 1 1015.3
20260508144507 59 90 0.0 3.0 0.00 0.00 0.00 1 1015.5
20260508143002 59 211 1.0 3.0 0.00 0.00 0.00 1 1015.3
20260508141558 59 176 0.0 1.0 0.00 0.00 0.00 1 1015.0
20260508140105 59 172 0.0 1.0 0.00 0.00 0.00 1 1015.0
20260508134550 59 236 0.0 3.0 0.00 0.00 0.00 1 1014.9
20260508133046 59 211 1.0 3.0 0.00 0.00 0.00 1 1014.7
20260508131544 59 194 0.0 2.0 0.00 0.00 0.00 1 1014.6
20260508130036 59 245 2.0 4.0 0.00 0.00 0.00 1 1014.6
20260508124532 59 215 0.0 1.0 0.00 0.00 0.00 1 1014.5
20260508123029 59 215 0.0 0.0 0.00 0.00 0.00 1 1014.4
20260508121523 59 215 1.0 3.0 0.00 0.00 0.00 1 1014.4
20260508120031 59 187 1.0 4.0 0.00 0.00 0.00 1 1014.3
20260508114514 59 184 0.0 3.0 0.00 0.00 0.00 1 1014.4
20260508113013 59 185 0.0 4.0 0.00 0.00 0.00 1 1014.3
20260508111507 59 181 1.0 4.0 0.00 0.00 0.00 1 1014.3
20260508110003 59 184 1.0 3.0 0.00 0.00 0.00 1 1014.4
20260508104601 59 205 1.0 4.0 0.00 0.00 0.00 1 1014.5
20260508103053 59 217 2.0 4.0 0.00 0.00 0.00 1 1014.8
20260508101553 59 234 1.0 7.0 0.00 0.00 0.00 1 1014.6
20260508100045 59 288 0.0 4.0 0.00 0.00 0.00 1 1014.7
20260508094545 59 250 2.0 4.0 0.00 0.00 0.00 1 1014.6
20260508093036 59 250 2.0 4.0 0.00 0.00 0.00 1 1014.5
20260508091538 59 281 0.0 2.0 0.00 0.00 0.00 1 1014.6
20260508090028 59 281 1.0 2.0 0.00 0.00 0.00 1 1014.7
20260508084523 59 208 0.0 2.0 0.00 0.00 0.00 1 1014.7
20260508083021 59 209 0.0 3.0 0.00 0.00 0.00 1 1014.8
20260508081514 59 211 1.0 3.0 0.00 0.00 0.00 1 1015.0
20260508080009 59 210 1.0 3.0 0.00 0.00 0.00 1 1015.3
20260508074507 59 211 0.0 2.0 0.00 0.00 0.00 1 1015.3
20260508073100 59 211 0.0 3.0 0.00 0.00 0.00 1 1015.3
20260508071557 59 210 0.0 4.0 0.00 0.00 0.00 1 1015.6
20260508070054 59 205 0.0 5.0 0.00 0.00 0.00 1 1015.7
20260508064552 59 215 0.0 3.0 0.00 0.00 0.00 1 1015.7
20260508063050 59 292 0.0 2.0 0.00 0.00 0.00 1 1015.7
20260508061551 58 292 0.0 2.0 0.00 0.00 0.00 1 1015.7
20260508060049 58 292 0.0 3.0 0.00 0.00 0.00 1 1015.6
20260508054545 58 273 1.0 3.0 0.00 0.00 0.00 1 1015.7
20260508053038 58 273 0.0 3.0 0.00 0.00 0.00 1 1015.7
20260508051537 58 273 0.0 4.0 0.00 0.00 0.00 1 1015.6
20260508050034 57 273 1.0 3.0 0.00 0.00 0.00 1 1015.6
20260508044526 57 273 2.0 5.0 0.00 0.00 0.00 1 1015.5
20260508043022 57 269 2.0 6.0 0.00 0.00 0.00 1 1015.3
20260508041517 58 243 2.0 7.0 0.00 0.00 0.00 1 1015.1
20260508040012 58 264 0.0 6.0 0.00 0.00 0.00 1 1015.0
20260508034507 59 259 1.0 3.0 0.00 0.00 0.00 1 1014.8
20260508033002 59 195 0.0 4.0 0.00 0.00 0.00 1 1014.8
20260508031600 60 246 0.0 8.0 0.00 0.00 0.00 1 1014.4
20260508030054 62 254 0.0 6.0 0.00 0.00 0.00 1 1014.1
20260508024557 64 206 1.0 7.0 0.00 0.00 0.00 1 1013.9
20260508023045 65 232 3.0 8.0 0.00 0.00 0.00 1 1013.6
20260508021541 67 238 4.0 9.0 0.00 0.00 0.00 1 1013.5